Find STARLINK-37229

NORAD ID: 799501010 Int'l Des: 2026-143L Constellation: starlink operational

Aktuelle Ansicht

3D-Globus wird geladen...

About STARLINK-37229

STARLINK-37229 (NORAD 799501010) is a starlink constellation satellite launched Jun 15, 2026

Über STARLINK-37229

Beschreibung wird geladen...

Nächste Überflüge

Passes for default location (London). Set your location on the main map for personalized predictions.

Höhenverlauf

Loading altitude history...

Zweizeiliger Elementsatz

1 99999C 2026143L 26173.19215278 .00497900 00000-0 755090-4 0 1730
2 99999 97.2820 216.0540 0011171 274.1495 208.2401 16.04152785 13
Epoch: 22. Juni 2026 • Age: 2 hours